Preview of NWS' New Version of Forecast
This preview is not operational and should not be used for support decisions.

Regional Weather Roundup (RWR)

Issued by National Weather Service (NWS)

                            
000
ASUS44 KMEG 181510
RWRTN 
TENNESSEE HOURLY STATE WEATHER ROUNDUP
NATIONAL WEATHER SERVICE MEMPHIS TN
1000 AM CDT TUE JUN 18 2019

TNZ002-004-019-021-049-052-054-088>092-181600-
WEST TENNESSEE
  
CITY           SKY/WX    TMP DP  RH WIND       PRES   REMARKS
MEMPHIS INTL   CLOUDY    74  73  97 VRB3      29.93R                  
NWS MEMPHIS      N/A     74 N/A N/A MISG        N/A                   
JACKSON        CLOUDY    74  72  93 S5        29.94F                  
DYERSBURG      FAIR      77  70  79 S3        29.93S                  
COVINGTON      CLOUDY    75  72  88 S5        29.92S                  
UNION CITY     CLOUDY    77  70  78 CALM      29.92S                  
BOLIVAR        PTSUNNY   73  72  94 SE8       29.93F                  
PARIS          PTSUNNY   75  72  88 S12       29.93F                  
HUNTINGDON     CLOUDY    75  72  88 S7        29.93F                  
LEXINGTON      CLOUDY    73  72  94 S7        29.95R                  
SELMER         FOG       72  70  94 S7        29.95S VSB 1            
SAVANNAH       PTSUNNY   72  70  94 S6        29.96S FOG              
$$

TNZ008-025-027-028-033-062-065-066-181600-
NORTH MIDDLE TENNESSEE
  
CITY           SKY/WX    TMP DP  RH WIND       PRES   REMARKS
NASHVILLE      PTSUNNY   73  70  90 SE8       29.97F                  
DICKSON        CLOUDY    73  72  94 SW6       29.95F                  
PORTLAND       CLOUDY    73  72  94 S7        29.97F                  
CLARKSVILLE    CLOUDY    73  70  90 S8        29.94F                  
LEBANON        CLOUDY    72  70  94 SE7       29.97F                  
SMYRNA         LGT RAIN  73  72  94 E5        29.99F                  
MURFREESBORO   FOG       73  72  94 CALM      29.97S VSB 1            
COOKEVILLE     CLOUDY    72  70  94 E5        30.01F                  
LIVINGSTON     MOSUNNY   68  66  94 SE3       30.01F                  
CROSSVILLE     CLOUDY    69  67  93 VRB3      30.06S                  
ROCKWOOD       PTSUNNY   72  70  94 CALM      30.04S FOG              
$$

TNZ061-075-076-078-094-096-097-181600-
SOUTH MIDDLE TENNESSEE
  
CITY           SKY/WX    TMP DP  RH WIND       PRES   REMARKS
LAWRENCEBURG   PTSUNNY   73  70  88 VRB5      29.98S                  
LEWISBURG      CLOUDY    75  72  88 CALM      29.98S                  
FAYETTEVILLE   CLOUDY    73  72  94 SW7       29.99S                  
TULLAHOMA      PTSUNNY   73  72  94 SW5       29.99F                  
WINCHESTER     CLOUDY    75  72  88 CALM      30.00S                  
MCMINNVILLE    CLOUDY    73  72  94 CALM      30.00F                  
COLUMBIA       MOSUNNY   73  73 100 S7        29.95F                  
SHELBYVILLE    PTSUNNY   75  72  88 VRB6      29.98F                  
$$

TNZ017-018-042-046-047-181600-
NORTHEAST TENNESSEE
  
CITY           SKY/WX    TMP DP  RH WIND       PRES   REMARKS
TRI CITIES     CLOUDY    75  67  76 SE3       30.05S                  
ELIZABETHTON   FAIR      75  70  83 CALM      30.05S                  
GREENEVILLE    PTSUNNY   73  70  88 NW6       30.05R                  
$$

TNZ012-013-036-069-073-074-181600-
CENTRAL EAST TENNESSEE
  
CITY           SKY/WX    TMP DP  RH WIND       PRES   REMARKS
KNOXVILLE      LGT RAIN  73  70  90 CALM      30.00S                  
OAK RIDGE      CLOUDY    74  69  85 W5        30.02                   
DOWNTOWN KNOXV CLOUDY    75  72  88 CALM      30.02R                  
GATLINBURG     PTSUNNY   75  70  83 CALM      30.01S                  
MORRISTOWN     CLOUDY    73  70  88 CALM      30.02R                  
JACKSBORO      CLOUDY    70  68  94 CALM      30.06S                  
$$

TNZ083-085-099-181600-
SOUTHEAST TENNESSEE
  
CITY           SKY/WX    TMP DP  RH WIND       PRES   REMARKS
CHATTANOOGA    LGT RAIN  74  72  93 S3        30.01F                  
$$

SKY/WX REPORTED AS FAIR MEANS FEW OR NO CLOUDS BELOW
12 THOUSAND FEET.